Torna al catalogo

FREGAT DEB

AttivoUNKNOWN
NORAD 45955·DEBRIS·🇷🇺 Russia

Lanciato Jul 18, 2011 da Baikonur Cosmodrome

Loading…

Prossimi Passaggi (prossime 24 ore)

TLE

AggiornatoSource: Space-Track

Epoca: Sep 14, 2026, 06:22 UTC

1 45955U 11037FL  26257.26551546 -.00020957  00000-0 -36971-1 0  9998
2 45955  51.4979 350.8447 1984712  54.4206 322.5782 10.47588029 27023

Traccia FREGAT DEB in tempo reale con AllMySat

Download on the App Store